Regional Weather Roundup
Issued by NWS

Home | Current Version | Previous Version | Text Only | Print | Product List | Glossary On
Versions: 1 2 3 4 5 6 7 8 9 10 11 12 13 14 15 16 17 18 19 20 21 22 23 24 25 26 27 28 29 30 31 32 33 34 35 36 37 38 39 40 41 42 43 44 45 46 47 48 49 50
000
ASUS43 KTOP 031008
RWRKS

WEATHER ROUNDUP FOR KANSAS
NATIONAL WEATHER SERVICE GOODLAND KS
400 AM CST TUE MAR 03 2015

NOTE:  "FAIR" INDICATES FEW OR NO CLOUDS BELOW 12,000 FEET WITH NO
SIGNIFICANT WEATHER AND/OR OBSTRUCTIONS TO VISIBILITY.

KSZ001>006-013>018-027>032-041>047-031100-
NORTHWEST KANSAS

CITY           SKY/WX    TMP DP  RH WIND       PRES   REMARKS
GOODLAND       CLOUDY    36  30  79 W14       29.55F WCI  27
HAYS           CLOUDY    37  27  65 SW8G20    29.60R
HILL CITY      CLOUDY    35  31  85 S7        29.56F
RUSSELL        MOCLDY    37  31  78 S21       29.58F WCI  26
$$

KSZ061>065-074>080-084>089-031100-
SOUTHWEST KANSAS

CITY           SKY/WX    TMP DP  RH WIND       PRES   REMARKS
DODGE CITY     CLOUDY    36  31  82 SW21G30   29.66S WCI  25
ELKHART          N/A     38  32  79 SW12        N/A  WCI  30
GARDEN CITY    MOCLDY    37  33  85 SW15      29.63S WCI  28
GREAT BEND     FAIR      37  28  70 S24G32    29.62S WCI  26
LIBERAL        PTCLDY    37  30  75 S13       29.72F WCI  29
PRATT          PTCLDY    34  32  93 SW22G30   29.71R WCI  22
$$

KSZ066>073-081>083-090>101-031100-
SOUTHEAST KANSAS

CITY           SKY/WX    TMP DP  RH WIND       PRES   REMARKS
CHANUTE        CLOUDY    35  35 100 S15       29.85F FOG     WCI  25
COFFEYVILLE    CLOUDY    36  36 100 S14       29.91F FOG     WCI  27
HUTCHINSON     CLOUDY    36  32  85 S23G31    29.70F WCI  24
MEDICINE LODGE   N/A     34  32  92 S10G20    29.76F WCI  26
NEWTON         CLOUDY    36  28  75 S26G36    29.72F WCI  23
PARSONS        CLOUDY    37  36  96 S14G20    29.89F FOG     WCI  28
WICHITA INTL   CLOUDY    35  33  92 S23       29.76F FOG     WCI  23
WICHITA JABRA  CLOUDY    35  33  92 S28G37    29.74F FOG     WCI  22
WICHITA MCCONL CLOUDY    35  34  96 S22G31    29.76F FOG     WCI  23
WINFIELD       CLOUDY    37  36  96 S14       29.85F WCI  28
$$

KSZ007>012-019>026-033>040-048>060-102>105-031100-
NORTHEAST KANSAS

CITY           SKY/WX    TMP DP  RH WIND       PRES   REMARKS
CONCORDIA      CLOUDY    34  31  88 S12G17    29.64F FOG     WCI  25
EMPORIA        CLOUDY    34  34 100 S20G30    29.74F FOG     WCI  23
LAWRENCE       CLOUDY    35  33  92 S15       29.78F FOG     WCI  25
MANHATTAN      CLOUDY    37  34  89 S21G30    29.68F WCI  26
MARYSVILLE     CLOUDY    34  32  93 S10G17    29.70R FOG     WCI  26
OLATHE IND     CLOUDY    34  33  96 S16       29.80F FOG     WCI  24
OLATHE EXE     CLOUDY    34  34 100 S13       29.79F FOG     WCI  25
SALINA         MOCLDY    37  31  78 S31G37    29.64F WCI  24
TOPEKA BILLARD CLOUDY    36  34  92 S9        29.76F
TOPEKA FORBES  CLOUDY    36  34  92 S16G25    29.73F FOG     WCI  26
$$



USA.gov is the U.S. government's official web portal to all federal, state and local government web resources and services.